Tracking 19484 objects as of 19-Jan-2019
HD Live streaming from Space Station
objects crossing your sky now

SPACEBEE-2

Track SPACEBEE-2 now!
10-day predictions


NORAD ID: 43141
Int'l Code: 2018-004AG
Perigee: 491.8 km
Apogee: 506.0 km
Inclination: 97.5 °
Period: 94.4 minutes
Semi major axis: 6869 km
RCS: Unknown
Launch date: January 12, 2018
Source: United States (US)
Launch site: SRIHARIKOTA (SRI)
aabbcc
Your satellite tracking list
Your tracking list is empty




NASA's NSSDC Master Catalog

Two Line Element Set (TLE):
1 43141U 18004AG  19018.48193429  .00002335  00000-0  97390-4 0  9990
2 43141  97.5116  87.0317 0010370  72.9195 287.3178 15.24670176 56516
Source of the keplerian elements: AFSPC